Tiempo cada hora Almalo

Hoy, 28 Julio, Miércoles

Tiempo Temperatura Precipitaciones Viento Presión Humedad
00:00 +25°C° 0.2 mm 1 mps 760 mmHg 72%
01:00 +25°C° 0.2 mm 2 mps 760 mmHg 72%
02:00 +25°C° 0.2 mm 2 mps 760 mmHg 71%
03:00 +24°C° 0 mm 2 mps 760 mmHg 75%
04:00 +22°C° 0.5 mm 3 mps 760 mmHg 77%
05:00 +21°C° 0.5 mm 4 mps 761 mmHg 80%
06:00 +20°C° 0.5 mm 4 mps 761 mmHg 82%
07:00 +21°C° 0.1 mm 5 mps 761 mmHg 80%
08:00 +21°C° 0.1 mm 5 mps 761 mmHg 78%
09:00 +21°C° 0.1 mm 5 mps 762 mmHg 77%
10:00 +21°C° 0.1 mm 5 mps 762 mmHg 76%
11:00 +21°C° 0.1 mm 4 mps 762 mmHg 76%
12:00 +21°C° 0.1 mm 4 mps 762 mmHg 75%
13:00 +21°C° 0.1 mm 3 mps 761 mmHg 75%
14:00 +21°C° 0.1 mm 3 mps 761 mmHg 75%
15:00 +21°C° 0.1 mm 2 mps 761 mmHg 75%
16:00 +21°C° 0.1 mm 2 mps 761 mmHg 75%
17:00 +21°C° 0.1 mm 2 mps 761 mmHg 76%
18:00 +21°C° 0.1 mm 2 mps 761 mmHg 77%
19:00 +21°C° 0 mm 2 mps 761 mmHg 76%
20:00 +21°C° 0 mm 2 mps 761 mmHg 75%
21:00 +23°C° 0 mm 2 mps 761 mmHg 73%
22:00 +23°C° 0 mm 2 mps 761 mmHg 73%
23:00 +23°C° 0 mm 2 mps 761 mmHg 72%

Mañana, 29 Julio, Jueves

Tiempo Temperatura Precipitaciones Viento Presión Humedad
00:00 +23°C° 0 mm 2 mps 760 mmHg 71%
01:00 +22°C° 0 mm 1 mps 760 mmHg 71%
02:00 +22°C° 0 mm 1 mps 760 mmHg 71%
03:00 +22°C° 0 mm 1 mps 760 mmHg 71%
04:00 +22°C° 0 mm 1 mps 760 mmHg 69%
05:00 +23°C° 0 mm 1 mps 760 mmHg 68%
06:00 +23°C° 0 mm 1 mps 760 mmHg 66%
07:00 +25°C° 0 mm 1 mps 760 mmHg 59%
08:00 +27°C° 0 mm 2 mps 760 mmHg 51%
09:00 +28°C° 0 mm 2 mps 760 mmHg 44%
10:00 +30°C° 0 mm 3 mps 759 mmHg 39%
11:00 +32°C° 0 mm 4 mps 759 mmHg 35%
12:00 +33°C° 0 mm 5 mps 759 mmHg 30%
13:00 +33°C° 0 mm 6 mps 759 mmHg 30%
14:00 +33°C° 0 mm 6 mps 758 mmHg 30%
15:00 +33°C° 0 mm 6 mps 758 mmHg 30%
16:00 +32°C° 0 mm 6 mps 758 mmHg 34%
17:00 +30°C° 0 mm 5 mps 758 mmHg 37%
18:00 +29°C° 0 mm 5 mps 758 mmHg 41%
19:00 +28°C° 0 mm 4 mps 758 mmHg 47%
20:00 +27°C° 0 mm 4 mps 758 mmHg 54%
21:00 +25°C° 0 mm 3 mps 758 mmHg 60%
22:00 +25°C° 0 mm 3 mps 758 mmHg 60%
23:00 +25°C° 0 mm 3 mps 758 mmHg 61%

Pasado mañana, 30 Julio, Viernes

Tiempo Temperatura Precipitaciones Viento Presión Humedad
00:00 +25°C° 0 mm 3 mps 757 mmHg 61%
01:00 +25°C° 0 mm 3 mps 757 mmHg 62%
02:00 +24°C° 0 mm 3 mps 757 mmHg 63%
03:00 +24°C° 0 mm 3 mps 757 mmHg 64%
04:00 +25°C° 0 mm 3 mps 757 mmHg 62%
05:00 +25°C° 0 mm 3 mps 757 mmHg 60%
06:00 +26°C° 0 mm 3 mps 757 mmHg 57%
07:00 +28°C° 0 mm 3 mps 757 mmHg 50%
08:00 +29°C° 0 mm 4 mps 757 mmHg 42%
09:00 +32°C° 0 mm 5 mps 757 mmHg 34%
10:00 +33°C° 0 mm 6 mps 757 mmHg 32%
11:00 +34°C° 0 mm 6 mps 757 mmHg 30%
12:00 +35°C° 0 mm 7 mps 756 mmHg 28%
13:00 +34°C° 0 mm 7 mps 756 mmHg 30%
14:00 +34°C° 0 mm 7 mps 756 mmHg 31%
15:00 +34°C° 0 mm 7 mps 755 mmHg 32%
16:00 +33°C° 0 mm 6 mps 755 mmHg 36%
17:00 +32°C° 0 mm 6 mps 756 mmHg 39%
18:00 +30°C° 0 mm 5 mps 756 mmHg 43%
19:00 +29°C° 0 mm 5 mps 756 mmHg 49%
20:00 +28°C° 0 mm 4 mps 756 mmHg 55%
21:00 +27°C° 0 mm 3 mps 756 mmHg 60%
22:00 +26°C° 0 mm 3 mps 756 mmHg 61%
23:00 +26°C° 0 mm 3 mps 755 mmHg 61%

31 Julio, Sábado

Tiempo Temperatura Precipitaciones Viento Presión Humedad
00:00 +26°C° 0 mm 3 mps 755 mmHg 61%
01:00 +26°C° 0 mm 2 mps 755 mmHg 62%
02:00 +26°C° 0 mm 2 mps 755 mmHg 62%
03:00 +25°C° 0 mm 2 mps 755 mmHg 62%
04:00 +26°C° 0 mm 2 mps 755 mmHg 60%
05:00 +26°C° 0 mm 1 mps 755 mmHg 57%
06:00 +27°C° 0 mm 1 mps 755 mmHg 55%
07:00 +29°C° 0 mm 1 mps 755 mmHg 49%
08:00 +30°C° 0 mm 2 mps 755 mmHg 44%
09:00 +32°C° 0 mm 2 mps 755 mmHg 39%
10:00 +34°C° 0 mm 3 mps 755 mmHg 35%
11:00 +35°C° 0 mm 4 mps 755 mmHg 32%
12:00 +36°C° 0 mm 5 mps 755 mmHg 28%
13:00 +36°C° 0 mm 5 mps 754 mmHg 27%
14:00 +36°C° 0 mm 5 mps 754 mmHg 27%
15:00 +36°C° 0 mm 6 mps 754 mmHg 26%
16:00 +35°C° 0 mm 5 mps 754 mmHg 29%
17:00 +34°C° 0 mm 5 mps 755 mmHg 32%
18:00 +33°C° 0 mm 4 mps 755 mmHg 35%
19:00 +32°C° 0 mm 4 mps 755 mmHg 40%
20:00 +30°C° 0 mm 3 mps 755 mmHg 45%
21:00 +28°C° 0 mm 3 mps 755 mmHg 49%
22:00 +28°C° 0 mm 3 mps 755 mmHg 51%
23:00 +28°C° 0 mm 3 mps 755 mmHg 52%

1 Agosto, Domingo

Tiempo Temperatura Precipitaciones Viento Presión Humedad
00:00 +27°C° 0 mm 3 mps 755 mmHg 54%
01:00 +27°C° 0 mm 2 mps 755 mmHg 54%
02:00 +27°C° 0 mm 2 mps 755 mmHg 55%
03:00 +26°C° 0 mm 1 mps 755 mmHg 56%
04:00 +27°C° 0 mm 1 mps 755 mmHg 53%
05:00 +28°C° 0 mm 1 mps 755 mmHg 51%
06:00 +28°C° 0 mm 1 mps 755 mmHg 48%
07:00 +30°C° 0 mm 1 mps 755 mmHg 42%
08:00 +32°C° 0 mm 1 mps 755 mmHg 35%
09:00 +34°C° 0 mm 1 mps 755 mmHg 29%
10:00 +36°C° 0 mm 2 mps 755 mmHg 26%
11:00 +37°C° 0 mm 3 mps 755 mmHg 23%
12:00 +40°C° 0 mm 4 mps 754 mmHg 20%
13:00 +39°C° 0 mm 5 mps 754 mmHg 21%
14:00 +39°C° 0 mm 5 mps 754 mmHg 22%
15:00 +38°C° 0 mm 6 mps 754 mmHg 23%
16:00 +36°C° 0 mm 5 mps 754 mmHg 26%
17:00 +35°C° 0 mm 5 mps 754 mmHg 29%
18:00 +34°C° 0 mm 4 mps 755 mmHg 32%
19:00 +33°C° 0 mm 4 mps 755 mmHg 38%
20:00 +31°C° 0 mm 3 mps 755 mmHg 44%
21:00 +29°C° 0 mm 3 mps 755 mmHg 49%
22:00 +29°C° 0 mm 3 mps 755 mmHg 51%
23:00 +28°C° 0 mm 2 mps 755 mmHg 53%

2 Agosto, Lunes

Tiempo Temperatura Precipitaciones Viento Presión Humedad
00:00 +28°C° 0 mm 2 mps 755 mmHg 55%
01:00 +28°C° 0 mm 2 mps 755 mmHg 55%
02:00 +28°C° 0 mm 2 mps 755 mmHg 55%
03:00 +28°C° 0 mm 2 mps 755 mmHg 55%
04:00 +28°C° 0 mm 2 mps 755 mmHg 53%
05:00 +29°C° 0 mm 2 mps 756 mmHg 52%
06:00 +29°C° 0 mm 2 mps 756 mmHg 51%
07:00 +31°C° 0 mm 3 mps 756 mmHg 45%
08:00 +34°C° 0 mm 3 mps 756 mmHg 39%
09:00 +35°C° 0 mm 4 mps 756 mmHg 34%
10:00 +37°C° 0 mm 5 mps 756 mmHg 30%
11:00 +39°C° 0 mm 6 mps 755 mmHg 26%
12:00 +40°C° 0 mm 7 mps 755 mmHg 23%
13:00 +40°C° 0 mm 7 mps 755 mmHg 23%
14:00 +39°C° 0 mm 7 mps 755 mmHg 24%
15:00 +39°C° 0 mm 7 mps 754 mmHg 25%
16:00 +38°C° 0 mm 6 mps 755 mmHg 29%
17:00 +35°C° 0 mm 6 mps 755 mmHg 33%
18:00 +34°C° 0 mm 5 mps 755 mmHg 37%
19:00 +33°C° 0 mm 4 mps 755 mmHg 42%
20:00 +30°C° 0 mm 3 mps 755 mmHg 47%
21:00 +29°C° 0 mm 3 mps 756 mmHg 51%
22:00 +29°C° 0 mm 3 mps 755 mmHg 52%
23:00 +28°C° 0 mm 2 mps 755 mmHg 52%
Mostrar más

Necesitamos Su Consentimiento

Meteoprog y nuestros Proveedores de Servicios pueden almacenar y acceder a sus datos personales como cookies, identificadores de dispositivo u otras tecnologías similares de su dispositivo y procesar dichos datos para personalizar contenido y anuncios, además de ofrecer funciones de redes sociales y analizar el tráfico.

  • Almacenar y/o acceder a información en su dispositivo

    Se puede almacenar o acceder a cookies, identificadores de dispositivo u otra información de su dispositivo para los fines anteriormente indicados.

  • Anuncios y contenido personalizados, medición de anuncios y contenido, percepciones del público, y desarrollo de productos

    Los anuncios y el contenido pueden personalizarse en base a su perfil. Se pueden añadir más datos para personalizar mejor los anuncios y contenidos. Se puede medir el rendimiento de los anuncios y contenidos. Se puede obtener la percepción sobre el público que ha visto los anuncios y contenidos. Dichos datos pueden usarse para desarrollar o mejorar la experiencia del usuario, sistemas y software.

Al hacer clic en ‘Estoy De Acuerdo’ usted permitirá el uso de las cookies, identificadores de dispositivo, balizas web u otras tecnologías similares indicadas. Su configuración puede cambiarse desde el navegador de su dispositivo.

Para ciertos fines, los intereses legítimos pueden ser considerados por encima del consentimiento. Puede leer más sobre ello en nuestra Política de Privacidad y Cookies.